St. Louis, MO

4:53 AM CDT on June 28, 2017 (GMT -0500)
Lambert-Saint Louis International

Weather History for KSTL - March, 2013

Change the Weather History Date:

Monday, March 25, 2013

  Actual Average Record
Temperature  
Mean Temperature 33 °F 50 °F  
Max Temperature 36 °F 60 °F 84 °F (1907)
Min Temperature 30 °F 40 °F 11 °F (1955)
Degree Days  
Heating Degree Days 32 16  
Month to date heating degree days 639 500  
Since 1 July heating degree days 3956 4098  
Cooling Degree Days 0 0  
Month to date cooling degree days 0 0  
Year to date cooling degree days 0 0  
Moisture  
Dew Point 27 °F    
Average Humidity 76    
Maximum Humidity 85    
Minimum Humidity 66    
Precipitation  
Precipitation 0.03 in 0.12 in 3.58 in (1904)
Month to date precipitation 4.80 2.57  
Year to date precipitation 11.19 7.21  
Snow  
Snow 0.40 in 0.10 in 3.00 in (1955)
Month to date snowfall 14.3 2.1  
Since 1 July snowfall 27.9 17.1  
Snow Depth 8.00 in    
Sea Level Pressure  
Sea Level Pressure 29.98 in    
Wind  
Wind Speed 13 mph (WNW)    
Max Wind Speed 22 mph    
Max Gust Speed 26 mph    
Visibility 5 miles    
Events Snow    
T = Trace of Precipitation, MM = Missing Value Source: NWS Daily Summary

Daily Weather History Graph

Daily Weather History Graph

Search for Another Location

Airport or City:

Trip Planner

Search our weather history database for the weather conditions in past years. The results will help you decide how hot, cold, wet, or windy it might be!

Date:

Astronomy

Mar. 25, 2013 Rise Set
Actual Time 6:56 AM CDT 7:18 PM CDT
Civil Twilight 6:30 AM CDT 7:45 PM CDT
Nautical Twilight 5:58 AM CDT 8:16 PM CDT
Astronomical Twilight 5:27 AM CDT 8:48 PM CDT
Moon 5:50 PM CDT (3/25) 5:39 AM CDT (3/25)
Length of Visible Light 13h 15m
Length of Day
12h 21m
Waxing Gibbous, 96% of the Moon is Illuminated
Mar 25
Waxing Gibbous
Mar 27
Full
Apr 2
Last Quarter
Apr 10
New
Apr 18
First Quarter

Hourly Weather History & Observations

Time (CDT) Temp. Windchill Dew Point Humidity Pressure Visibility Wind Dir Wind Speed Gust Speed Precip Events Conditions
12:51 AM 32.0 °F 21.2 °F 28.9 °F 88% 29.86 in 1.8 mi NW 16.1 mph - 0.01 in Snow Light Snow
1:51 AM 32.0 °F 22.1 °F 28.0 °F 85% 29.88 in 1.8 mi WNW 13.8 mph 23.0 mph 0.01 in Snow Light Snow
2:02 AM 32.0 °F 21.2 °F 28.4 °F 87% 29.85 in 2.5 mi WNW 16.1 mph 23.0 mph 0.01 in Snow Light Snow
2:48 AM 32.0 °F 21.6 °F 28.4 °F 87% 29.85 in 2.5 mi WNW 15.0 mph - 0.01 in Snow Light Snow
2:51 AM 32.0 °F 22.1 °F 28.0 °F 85% 29.88 in 2.5 mi WNW 13.8 mph - 0.01 in Snow Light Snow
2:57 AM 32.0 °F 21.6 °F 28.4 °F 87% 29.85 in 3.0 mi WNW 15.0 mph - 0.00 in Snow Light Snow
3:10 AM 30.2 °F 18.5 °F 28.4 °F 93% 29.84 in 5.0 mi WNW 17.3 mph 25.3 mph 0.00 in Snow Light Snow
3:41 AM 30.2 °F 18.9 °F 26.6 °F 86% 29.85 in 7.0 mi WNW 16.1 mph 24.2 mph 0.00 in Snow Light Snow
3:51 AM 30.9 °F 19.8 °F 27.0 °F 85% 29.88 in 7.0 mi WNW 16.1 mph 24.2 mph 0.00 in Snow Light Snow
4:51 AM 30.9 °F 19.4 °F 27.0 °F 85% 29.88 in 6.0 mi WNW 17.3 mph 25.3 mph 0.00 in Snow Light Snow
5:01 AM 30.2 °F 18.5 °F 26.6 °F 86% 29.85 in 6.0 mi WNW 17.3 mph - 0.00 in Snow Light Snow
5:08 AM 30.2 °F 18.1 °F 26.6 °F 86% 29.85 in 6.0 mi WNW 18.4 mph 24.2 mph 0.00 in Snow Light Snow
5:32 AM 30.2 °F 19.8 °F 26.6 °F 86% 29.86 in 2.0 mi WNW 13.8 mph - 0.00 in Snow Light Snow
5:51 AM 30.9 °F 20.7 °F 27.0 °F 85% 29.90 in 2.5 mi WNW 13.8 mph 21.9 mph 0.00 in Snow Light Snow
6:11 AM 30.2 °F 18.9 °F 26.6 °F 86% 29.87 in 3.0 mi WNW 16.1 mph 23.0 mph 0.00 in Snow Light Snow
6:30 AM 30.2 °F 17.8 °F 26.6 °F 86% 29.88 in 3.0 mi West 19.6 mph 24.2 mph 0.00 in Snow Light Snow
6:51 AM 30.0 °F 18.3 °F 26.1 °F 85% 29.92 in 3.0 mi West 17.3 mph - 0.00 in Snow Light Snow
7:02 AM 30.2 °F 18.9 °F 26.6 °F 86% 29.89 in 2.5 mi West 16.1 mph - 0.00 in Snow Light Snow
7:19 AM 30.2 °F 18.1 °F 26.6 °F 86% 29.90 in 3.0 mi West 18.4 mph 24.2 mph 0.00 in Snow Light Snow
7:32 AM 30.2 °F 18.5 °F 24.8 °F 80% 29.90 in 3.0 mi West 17.3 mph - 0.00 in Snow Light Snow
7:51 AM 30.0 °F 17.9 °F 25.0 °F 82% 29.95 in 3.0 mi West 18.4 mph - 0.00 in Snow Light Snow
8:00 AM 30.2 °F 18.5 °F 24.8 °F 80% 29.91 in 3.0 mi West 17.3 mph - 0.00 in Snow Light Snow
8:15 AM 30.2 °F 18.1 °F 24.8 °F 80% 29.92 in 2.5 mi WNW 18.4 mph - 0.00 in Snow Light Snow
8:51 AM 30.0 °F 18.3 °F 26.1 °F 85% 29.97 in 2.5 mi WNW 17.3 mph - 0.00 in Snow Light Snow
9:14 AM 30.2 °F 18.5 °F 26.6 °F 86% 29.94 in 1.5 mi WNW 17.3 mph - 0.00 in Snow Light Snow
9:42 AM 30.2 °F 18.5 °F 26.6 °F 86% 29.95 in 2.0 mi WNW 17.3 mph - 0.00 in Snow Light Snow
9:51 AM 30.9 °F 19.8 °F 27.0 °F 85% 29.99 in 2.0 mi WNW 16.1 mph - 0.00 in Snow Light Snow
10:15 AM 32.0 °F 20.5 °F 26.6 °F 80% 29.96 in 3.0 mi WNW 18.4 mph - 0.00 in Snow Light Snow
10:51 AM 33.1 °F 21.9 °F 28.0 °F 82% 30.01 in 3.0 mi WNW 18.4 mph 24.2 mph 0.00 in Snow Light Snow
11:46 AM 33.8 °F 24.8 °F 28.4 °F 81% 30.00 in 1.5 mi WNW 12.7 mph 23.0 mph 0.00 in Snow Light Snow
11:51 AM 34.0 °F 24.6 °F 28.0 °F 79% 30.03 in 1.5 mi WNW 13.8 mph - 0.00 in Snow Light Snow
12:41 PM 35.6 °F 27.1 °F 28.4 °F 75% 30.01 in 1.5 mi WNW 12.7 mph 20.7 mph 0.01 in Snow Light Snow
12:51 PM 34.0 °F 25.0 °F 28.9 °F 82% 30.04 in 1.5 mi WNW 12.7 mph - 0.01 in Snow Light Snow
1:03 PM 35.6 °F 27.5 °F 28.4 °F 75% 30.01 in 2.5 mi WNW 11.5 mph 21.9 mph 0.00 in Snow Light Snow
1:18 PM 35.6 °F 27.5 °F 28.4 °F 75% 30.01 in 3.0 mi WNW 11.5 mph - 0.00 in Snow Light Snow
1:31 PM 35.6 °F 24.8 °F 26.6 °F 70% 30.01 in 7.0 mi NW 19.6 mph 23.0 mph 0.00 in   Overcast
1:47 PM 35.6 °F 25.5 °F 26.6 °F 70% 30.01 in 8.0 mi NW 17.3 mph - 0.00 in   Overcast
1:51 PM 36.0 °F 27.1 °F 27.0 °F 70% 30.04 in 8.0 mi NW 13.8 mph 23.0 mph 0.00 in   Overcast
2:34 PM 35.6 °F 28.0 °F 28.4 °F 75% 30.02 in 9.0 mi WNW 10.4 mph - 0.00 in Snow Light Snow
2:51 PM 36.0 °F 27.5 °F 28.0 °F 73% 30.06 in 8.0 mi WNW 12.7 mph - 0.00 in Snow Light Snow
3:34 PM 35.6 °F 27.5 °F 26.6 °F 70% 30.04 in 7.0 mi NW 11.5 mph - 0.00 in Snow Light Snow
3:51 PM 35.1 °F 27.4 °F 27.0 °F 72% 30.08 in 8.0 mi NW 10.4 mph - 0.00 in Snow Light Snow
4:23 PM 33.8 °F 26.4 °F 26.6 °F 75% 30.06 in 9.0 mi WNW 9.2 mph 19.6 mph 0.00 in Snow Light Snow
4:51 PM 34.0 °F 26.0 °F 26.1 °F 73% 30.10 in 9.0 mi WNW 10.4 mph - 0.00 in Snow Light Snow
5:51 PM 34.0 °F 26.6 °F 25.0 °F 70% 30.12 in 10.0 mi WNW 9.2 mph - 0.00 in   Overcast
6:51 PM 33.1 °F 24.9 °F 24.1 °F 70% 30.15 in 10.0 mi WNW 10.4 mph - N/A   Overcast
7:51 PM 33.1 °F 24.9 °F 24.1 °F 70% 30.18 in 10.0 mi WNW 10.4 mph - N/A   Overcast
8:51 PM 32.0 °F 23.6 °F 23.0 °F 69% 30.20 in 10.0 mi WNW 10.4 mph - N/A   Mostly Cloudy
9:51 PM 32.0 °F 24.8 °F 23.0 °F 69% 30.21 in 10.0 mi WNW 8.1 mph - N/A   Mostly Cloudy
10:51 PM 30.9 °F 22.8 °F 23.0 °F 72% 30.22 in 10.0 mi WNW 9.2 mph - N/A   Mostly Cloudy
11:51 PM 30.9 °F 22.8 °F 21.9 °F 69% 30.22 in 10.0 mi WNW 9.2 mph - N/A   Mostly Cloudy